SUR4693 SABE-SASJ

Flight info

Callsign SUR4693
Flight time 1h 59m
Altitude 34000
Route BIVAM4B BIVAM UW8 ERE UT672 DADMI UT677 ILPAR ILPAR2U
Aircraft A320/M-SDE3FGHIRWY/LB1

Departure

Time 2026-04-25 13:07
Airport Aeroparque Jorge Newbery (SABE)

Arrival

Time 2026-04-25 15:07
Airport Gobernador Horacio Guzman International Airport (SASJ)
Time Latitude Longitude Altitude Speed Heading
2026-04-25 12:45 -34.55759 -58.41325 26 ft 0 kts 35°
2026-04-25 12:57 -34.55777 -58.41340 28 ft 4 kts 28°
2026-04-25 12:58 -34.55798 -58.41347 26 ft 4 kts 322°
2026-04-25 12:58 -34.55814 -58.41327 28 ft 4 kts 302°
2026-04-25 12:58 -34.55817 -58.41321 25 ft 0 kts 302°
2026-04-25 13:01 -34.55813 -58.41327 25 ft 2 kts 302°
2026-04-25 13:02 -34.55803 -58.41347 29 ft 4 kts 302°
2026-04-25 13:02 -34.55785 -58.41381 27 ft 7 kts 305°
2026-04-25 13:02 -34.55751 -58.41439 26 ft 9 kts 302°
2026-04-25 13:02 -34.55720 -58.41509 26 ft 9 kts 293°
2026-04-25 13:03 -34.55751 -58.41572 26 ft 10 kts 213°
2026-04-25 13:03 -34.55783 -58.41635 25 ft 10 kts 282°
2026-04-25 13:03 -34.55747 -58.41729 29 ft 15 kts 296°
2026-04-25 13:03 -34.55690 -58.41839 28 ft 17 kts 304°
2026-04-25 13:04 -34.55621 -58.41962 26 ft 19 kts 304°
2026-04-25 13:04 -34.55543 -58.42097 27 ft 20 kts 309°
2026-04-25 13:04 -34.55458 -58.42232 28 ft 20 kts 307°
2026-04-25 13:04 -34.55390 -58.42341 27 ft 10 kts 306°
2026-04-25 13:05 -34.55375 -58.42367 25 ft 1 kts 302°
2026-04-25 13:05 -34.55370 -58.42380 25 ft 3 kts 292°
2026-04-25 13:05 -34.55364 -58.42414 29 ft 5 kts 279°
2026-04-25 13:05 -34.55361 -58.42469 25 ft 8 kts 262°
2026-04-25 13:06 -34.55399 -58.42507 26 ft 7 kts 175°
2026-04-25 13:06 -34.55433 -58.42460 27 ft 10 kts 124°
2026-04-25 13:06 -34.55568 -58.42215 27 ft 70 kts 124°
2026-04-25 13:06 -34.55961 -58.41514 26 ft 128 kts 124°
2026-04-25 13:07 -34.56544 -58.40473 119 ft 162 kts 126°
2026-04-25 13:07 -34.57136 -58.39384 858 ft 153 kts 123°
2026-04-25 13:07 -34.57675 -58.38281 1454 ft 155 kts 118°
2026-04-25 13:07 -34.57987 -58.36956 1875 ft 174 kts 100°
2026-04-25 13:08 -34.58008 -58.35392 2067 ft 201 kts 85°
2026-04-25 13:08 -34.57621 -58.33676 2353 ft 224 kts 67°
2026-04-25 13:08 -34.56717 -58.32003 2660 ft 252 kts 47°
2026-04-25 13:08 -34.55247 -58.30708 3175 ft 269 kts 30°
2026-04-25 13:09 -34.53611 -58.29557 3962 ft 275 kts 31°
2026-04-25 13:09 -34.51966 -58.28350 4869 ft 276 kts 31°
2026-04-25 13:09 -34.50198 -58.27493 5740 ft 277 kts
2026-04-25 13:09 -34.48274 -58.27508 6501 ft 278 kts 347°
2026-04-25 13:10 -34.46459 -58.28251 7357 ft 274 kts 330°
2026-04-25 13:10 -34.44872 -58.29502 8221 ft 272 kts 323°
2026-04-25 13:10 -34.43293 -58.30819 8927 ft 279 kts 322°
2026-04-25 13:10 -34.41682 -58.32179 9605 ft 285 kts 320°
2026-04-25 13:11 -34.40292 -58.33889 10278 ft 287 kts 308°
2026-04-25 13:11 -34.38989 -58.35776 10728 ft 301 kts 307°
2026-04-25 13:11 -34.37622 -58.37771 10953 ft 320 kts 307°
2026-04-25 13:11 -34.36159 -58.39901 11201 ft 338 kts 308°
2026-04-25 13:12 -34.34602 -58.42122 11503 ft 352 kts 308°
2026-04-25 13:12 -34.33005 -58.44368 12196 ft 353 kts 309°
2026-04-25 13:12 -34.31390 -58.46607 12921 ft 353 kts 309°
2026-04-25 13:12 -34.30299 -58.48118 13427 ft 353 kts 309°
2026-04-25 13:13 -34.28172 -58.51093 14279 ft 354 kts 308°
2026-04-25 13:13 -34.26566 -58.53374 14819 ft 357 kts 308°
2026-04-25 13:13 -34.24948 -58.55670 15379 ft 359 kts 308°
2026-04-25 13:13 -34.23318 -58.57962 15961 ft 360 kts 308°
2026-04-25 13:14 -34.21679 -58.60262 16568 ft 361 kts 308°
2026-04-25 13:14 -34.20034 -58.62562 17131 ft 363 kts 308°
2026-04-25 13:14 -34.18378 -58.64882 17711 ft 365 kts 308°
2026-04-25 13:14 -34.16719 -58.67207 18292 ft 366 kts 308°
2026-04-25 13:15 -34.15050 -58.69545 18806 ft 368 kts 308°
2026-04-25 13:15 -34.13394 -58.71861 19301 ft 369 kts 308°
2026-04-25 13:15 -34.11704 -58.74218 19760 ft 373 kts 308°
2026-04-25 13:15 -34.10002 -58.76589 20247 ft 375 kts 308°
2026-04-25 13:16 -34.08290 -58.78975 20759 ft 376 kts 307°
2026-04-25 13:16 -34.06577 -58.81366 21259 ft 377 kts 307°
2026-04-25 13:16 -34.04859 -58.83764 21736 ft 378 kts 307°
2026-04-25 13:16 -34.03137 -58.86166 22219 ft 379 kts 307°
2026-04-25 13:17 -34.01406 -58.88576 22682 ft 380 kts 306°
2026-04-25 13:17 -33.99670 -58.90989 23150 ft 382 kts 306°
2026-04-25 13:17 -33.97898 -58.93382 23595 ft 385 kts 310°
2026-04-25 13:17 -33.95822 -58.95474 23925 ft 394 kts 319°
2026-04-25 13:18 -33.93474 -58.97230 24276 ft 398 kts 322°
2026-04-25 13:18 -33.91098 -58.98959 24629 ft 400 kts 322°
2026-04-25 13:18 -33.88717 -59.00693 24975 ft 401 kts 321°
2026-04-25 13:18 -33.86326 -59.02434 25327 ft 402 kts 321°
2026-04-25 13:19 -33.83925 -59.04182 25704 ft 403 kts 321°
2026-04-25 13:19 -33.81527 -59.05931 26080 ft 404 kts 321°
2026-04-25 13:19 -33.79118 -59.07687 26442 ft 405 kts 321°
2026-04-25 13:19 -33.78337 -59.08257 26520 ft 405 kts 321°
2026-04-25 13:20 -33.74314 -59.11193 27136 ft 407 kts 321°
2026-04-25 13:20 -33.71899 -59.12953 27641 ft 404 kts 321°
2026-04-25 13:20 -33.69498 -59.14695 28161 ft 402 kts 320°
2026-04-25 13:20 -33.67108 -59.16423 28681 ft 399 kts 320°
2026-04-25 13:21 -33.64735 -59.18141 29197 ft 397 kts 320°
2026-04-25 13:21 -33.62378 -59.19847 29717 ft 395 kts 320°
2026-04-25 13:21 -33.60032 -59.21548 30219 ft 393 kts 320°
2026-04-25 13:21 -33.57699 -59.23244 30606 ft 391 kts 320°
2026-04-25 13:22 -33.55379 -59.24929 31029 ft 389 kts 320°
2026-04-25 13:22 -33.53064 -59.26606 31460 ft 387 kts 319°
2026-04-25 13:22 -33.50761 -59.28270 31891 ft 385 kts 319°
2026-04-25 13:23 -33.46195 -59.31565 32793 ft 381 kts 319°
2026-04-25 13:23 -33.43928 -59.33201 33245 ft 379 kts 319°
2026-04-25 13:23 -33.41677 -59.34828 33687 ft 377 kts 319°
2026-04-25 13:23 -33.39455 -59.36436 33976 ft 376 kts 319°
2026-04-25 13:24 -33.37213 -59.38056 34039 ft 379 kts 319°
2026-04-25 13:24 -33.32614 -59.41377 34047 ft 389 kts 319°
2026-04-25 13:25 -33.27962 -59.44716 34051 ft 391 kts 319°
2026-04-25 13:25 -33.23302 -59.48055 34054 ft 390 kts 319°
2026-04-25 13:26 -33.18685 -59.51445 34044 ft 388 kts 318°
2026-04-25 13:26 -33.14120 -59.54862 34051 ft 387 kts 318°
2026-04-25 13:27 -33.10326 -59.57697 34051 ft 387 kts 318°
2026-04-25 13:27 -33.05753 -59.61093 34069 ft 387 kts 318°
2026-04-25 13:28 -33.01177 -59.64480 34024 ft 388 kts 318°
2026-04-25 13:28 -32.96593 -59.67860 34036 ft 387 kts 318°
2026-04-25 13:29 -32.92018 -59.71238 34041 ft 387 kts 318°
2026-04-25 13:29 -32.87467 -59.74595 34047 ft 387 kts 318°
2026-04-25 13:30 -32.80596 -59.79649 34026 ft 387 kts 318°
2026-04-25 13:31 -32.73730 -59.84696 34042 ft 387 kts 318°
2026-04-25 13:31 -32.69152 -59.88061 34049 ft 387 kts 318°
2026-04-25 13:32 -32.64571 -59.91421 34070 ft 387 kts 318°
2026-04-25 13:32 -32.59989 -59.94780 34065 ft 387 kts 318°
2026-04-25 13:33 -32.55402 -59.98133 34067 ft 387 kts 318°
2026-04-25 13:33 -32.50810 -60.01478 34067 ft 387 kts 318°
2026-04-25 13:34 -32.46220 -60.04820 34067 ft 387 kts 318°
2026-04-25 13:34 -32.41657 -60.08142 34026 ft 387 kts 318°
2026-04-25 13:35 -32.37068 -60.11492 34042 ft 387 kts 317°
2026-04-25 13:35 -32.32476 -60.14837 34051 ft 388 kts 318°
2026-04-25 13:36 -32.27874 -60.18177 34064 ft 388 kts 318°
2026-04-25 13:36 -32.23267 -60.21508 34032 ft 388 kts 318°
2026-04-25 13:37 -32.18669 -60.24841 34040 ft 388 kts 317°
2026-04-25 13:37 -32.14066 -60.28171 34048 ft 388 kts 318°
2026-04-25 13:38 -32.09454 -60.31497 34056 ft 388 kts 318°
2026-04-25 13:38 -32.04847 -60.34815 34066 ft 388 kts 318°
2026-04-25 13:39 -32.00261 -60.38115 34050 ft 388 kts 317°
2026-04-25 13:39 -31.95649 -60.41442 34063 ft 388 kts 317°
2026-04-25 13:40 -31.91034 -60.44770 34077 ft 388 kts 317°
2026-04-25 13:40 -31.86415 -60.48078 34098 ft 389 kts 317°
2026-04-25 13:41 -31.81799 -60.51386 34063 ft 388 kts 317°
2026-04-25 13:41 -31.77184 -60.54692 34079 ft 388 kts 317°
2026-04-25 13:42 -31.72576 -60.57997 34084 ft 388 kts 317°
2026-04-25 13:42 -31.67968 -60.61292 34083 ft 388 kts 317°
2026-04-25 13:43 -31.63356 -60.64579 34067 ft 388 kts 317°
2026-04-25 13:43 -31.58780 -60.67835 34052 ft 387 kts 317°
2026-04-25 13:44 -31.54182 -60.71115 34068 ft 386 kts 317°
2026-04-25 13:44 -31.49590 -60.74393 34071 ft 386 kts 317°
2026-04-25 13:45 -31.44998 -60.77656 34084 ft 386 kts 317°
2026-04-25 13:45 -31.40395 -60.80914 34036 ft 386 kts 317°
2026-04-25 13:46 -31.35803 -60.84165 34062 ft 385 kts 317°
2026-04-25 13:46 -31.31220 -60.87411 34072 ft 385 kts 317°
2026-04-25 13:47 -31.26642 -60.90656 34076 ft 385 kts 317°
2026-04-25 13:47 -31.22061 -60.93890 34078 ft 385 kts 317°
2026-04-25 13:48 -31.17486 -60.97116 34060 ft 384 kts 317°
2026-04-25 13:48 -31.12948 -61.00306 34080 ft 383 kts 317°
2026-04-25 13:49 -31.08376 -61.03522 34082 ft 383 kts 317°
2026-04-25 13:49 -31.03804 -61.06732 34091 ft 383 kts 317°
2026-04-25 13:50 -30.99301 -61.10005 34059 ft 380 kts 316°
2026-04-25 13:50 -30.94863 -61.13366 34073 ft 380 kts 315°
2026-04-25 13:51 -30.90432 -61.16718 34078 ft 380 kts 316°
2026-04-25 13:51 -30.85975 -61.20041 34081 ft 380 kts 316°
2026-04-25 13:52 -30.81506 -61.23342 34085 ft 380 kts 316°
2026-04-25 13:52 -30.77067 -61.26633 34060 ft 380 kts 316°
2026-04-25 13:53 -30.72603 -61.29949 34073 ft 381 kts 316°
2026-04-25 13:53 -30.68144 -61.33259 34082 ft 381 kts 316°
2026-04-25 13:54 -30.63675 -61.36580 34100 ft 381 kts 316°
2026-04-25 13:54 -30.59202 -61.39885 34098 ft 381 kts 316°
2026-04-25 13:55 -30.54726 -61.43183 34100 ft 381 kts 316°
2026-04-25 13:55 -30.50249 -61.46484 34099 ft 381 kts 316°
2026-04-25 13:56 -30.45807 -61.49760 34099 ft 381 kts 316°
2026-04-25 13:56 -30.41331 -61.53056 34099 ft 381 kts 316°
2026-04-25 13:57 -30.36849 -61.56346 34046 ft 381 kts 316°
2026-04-25 13:57 -30.32357 -61.59642 34062 ft 382 kts 316°
2026-04-25 13:58 -30.27869 -61.62944 34077 ft 382 kts 316°
2026-04-25 13:58 -30.23378 -61.66242 34086 ft 383 kts 316°
2026-04-25 13:59 -30.18875 -61.69544 34095 ft 383 kts 316°
2026-04-25 13:59 -30.14371 -61.72833 34053 ft 383 kts 316°
2026-04-25 14:00 -30.09860 -61.76126 34069 ft 384 kts 316°
2026-04-25 14:00 -30.05344 -61.79416 34088 ft 384 kts 316°
2026-04-25 14:01 -30.00827 -61.82711 34105 ft 384 kts 316°
2026-04-25 14:01 -29.96299 -61.86015 34100 ft 384 kts 316°
2026-04-25 14:02 -29.91801 -61.89287 34072 ft 385 kts 316°
2026-04-25 14:02 -29.87253 -61.92576 34105 ft 387 kts 316°
2026-04-25 14:03 -29.82530 -61.95654 34108 ft 393 kts 319°
2026-04-25 14:03 -29.77673 -61.98563 34110 ft 394 kts 320°
2026-04-25 14:04 -29.72819 -62.01476 34063 ft 393 kts 320°
2026-04-25 14:04 -29.67995 -62.04428 34081 ft 392 kts 319°
2026-04-25 14:05 -29.63182 -62.07394 34098 ft 392 kts 319°
2026-04-25 14:05 -29.58370 -62.10362 34107 ft 392 kts 319°
2026-04-25 14:06 -29.53553 -62.13320 34112 ft 392 kts 320°
2026-04-25 14:06 -29.48737 -62.16270 34053 ft 393 kts 320°
2026-04-25 14:07 -29.43902 -62.19222 34068 ft 394 kts 320°
2026-04-25 14:07 -29.39064 -62.22181 34083 ft 394 kts 320°
2026-04-25 14:08 -29.34262 -62.25122 34119 ft 394 kts 320°
2026-04-25 14:08 -29.29425 -62.28082 34115 ft 394 kts 320°
2026-04-25 14:09 -29.24584 -62.31037 34069 ft 395 kts 320°
2026-04-25 14:09 -29.19727 -62.33991 34077 ft 396 kts 320°
2026-04-25 14:10 -29.14862 -62.36946 34093 ft 396 kts 320°
2026-04-25 14:10 -29.09992 -62.39913 34103 ft 397 kts 320°
2026-04-25 14:11 -29.05142 -62.42851 34074 ft 397 kts 320°
2026-04-25 14:11 -29.00259 -62.45813 34077 ft 398 kts 320°
2026-04-25 14:12 -28.95354 -62.48791 34086 ft 399 kts 321°
2026-04-25 14:12 -28.90445 -62.51766 34096 ft 399 kts 321°
2026-04-25 14:13 -28.85529 -62.54727 34098 ft 400 kts 321°
2026-04-25 14:13 -28.80921 -62.58022 34072 ft 389 kts 314°
2026-04-25 14:14 -28.76551 -62.61676 34071 ft 390 kts 314°
2026-04-25 14:14 -28.72155 -62.65318 34093 ft 391 kts 314°
2026-04-25 14:15 -28.67749 -62.68952 34096 ft 391 kts 314°
2026-04-25 14:15 -28.63350 -62.72595 34102 ft 391 kts 314°
2026-04-25 14:16 -28.58952 -62.76242 34055 ft 391 kts 314°
2026-04-25 14:16 -28.54543 -62.79893 34069 ft 392 kts 314°
2026-04-25 14:17 -28.50864 -62.82926 34087 ft 393 kts 314°
2026-04-25 14:17 -28.45715 -62.87176 34097 ft 393 kts 314°
2026-04-25 14:18 -28.41999 -62.90233 34104 ft 394 kts 314°
2026-04-25 14:18 -28.37563 -62.93884 34104 ft 393 kts 314°
2026-04-25 14:19 -28.33130 -62.97536 34106 ft 394 kts 314°
2026-04-25 14:19 -28.28691 -63.01180 34107 ft 394 kts 314°
2026-04-25 14:20 -28.24280 -63.04797 34110 ft 394 kts 314°
2026-04-25 14:20 -28.19847 -63.08435 34110 ft 394 kts 314°
2026-04-25 14:21 -28.15407 -63.12069 34069 ft 394 kts 315°
2026-04-25 14:21 -28.10966 -63.15702 34082 ft 394 kts 315°
2026-04-25 14:22 -28.06512 -63.19343 34081 ft 395 kts 315°
2026-04-25 14:22 -28.02053 -63.22987 34088 ft 395 kts 315°
2026-04-25 14:23 -27.97582 -63.26627 34093 ft 395 kts 315°
2026-04-25 14:23 -27.93113 -63.30260 34094 ft 395 kts 315°
2026-04-25 14:24 -27.88647 -63.33904 34072 ft 396 kts 315°
2026-04-25 14:24 -27.84171 -63.37547 34077 ft 397 kts 315°
2026-04-25 14:25 -27.79678 -63.41192 34080 ft 398 kts 315°
2026-04-25 14:25 -27.75207 -63.44816 34085 ft 398 kts 315°
2026-04-25 14:26 -27.70714 -63.48459 34095 ft 398 kts 315°
2026-04-25 14:26 -27.66214 -63.52101 34068 ft 398 kts 315°
2026-04-25 14:27 -27.61702 -63.55751 34071 ft 399 kts 316°
2026-04-25 14:27 -27.57181 -63.59397 34079 ft 400 kts 316°
2026-04-25 14:28 -27.52657 -63.63051 34085 ft 400 kts 316°
2026-04-25 14:28 -27.48155 -63.66682 34090 ft 400 kts 316°
2026-04-25 14:29 -27.43621 -63.70333 34050 ft 401 kts 316°
2026-04-25 14:29 -27.39074 -63.73994 34060 ft 402 kts 316°
2026-04-25 14:30 -27.34521 -63.77655 34087 ft 402 kts 316°
2026-04-25 14:30 -27.27680 -63.83141 34087 ft 404 kts 318°
2026-04-25 14:31 -27.25158 -63.84636 34091 ft 415 kts 327°
2026-04-25 14:31 -27.22512 -63.85940 34054 ft 416 kts 327°
2026-04-25 14:31 -27.17198 -63.88532 34063 ft 416 kts 327°
2026-04-25 14:32 -27.11912 -63.91110 34065 ft 417 kts 327°
2026-04-25 14:32 -27.06585 -63.93708 34072 ft 417 kts 327°
2026-04-25 14:33 -27.01257 -63.96305 34081 ft 418 kts 327°
2026-04-25 14:33 -26.95929 -63.98904 34068 ft 418 kts 328°
2026-04-25 14:34 -26.90591 -64.01498 34073 ft 418 kts 328°
2026-04-25 14:34 -26.85253 -64.04092 34080 ft 418 kts 328°
2026-04-25 14:35 -26.79906 -64.06689 34087 ft 418 kts 328°
2026-04-25 14:35 -26.74586 -64.09264 34094 ft 418 kts 328°
2026-04-25 14:36 -26.69241 -64.11851 34072 ft 419 kts 328°
2026-04-25 14:36 -26.63895 -64.14439 34076 ft 419 kts 328°
2026-04-25 14:37 -26.58529 -64.17027 34085 ft 420 kts 328°
2026-04-25 14:37 -26.53163 -64.19621 34088 ft 420 kts 328°
2026-04-25 14:38 -26.47797 -64.22208 34049 ft 420 kts 329°
2026-04-25 14:38 -26.42426 -64.24795 34061 ft 421 kts 329°
2026-04-25 14:39 -26.37030 -64.27400 34076 ft 423 kts 329°
2026-04-25 14:39 -26.31647 -64.29995 34080 ft 424 kts 329°
2026-04-25 14:40 -26.26232 -64.32602 34085 ft 424 kts 329°
2026-04-25 14:40 -26.20809 -64.35198 34072 ft 424 kts 329°
2026-04-25 14:41 -26.15380 -64.37792 34082 ft 425 kts 329°
2026-04-25 14:41 -26.09938 -64.40400 34085 ft 426 kts 329°
2026-04-25 14:42 -26.05418 -64.42568 34091 ft 426 kts 329°
2026-04-25 14:42 -25.99056 -64.45619 34096 ft 426 kts 329°
2026-04-25 14:43 -25.93597 -64.48224 34096 ft 426 kts 329°
2026-04-25 14:43 -25.88141 -64.50817 34105 ft 426 kts 329°
2026-04-25 14:44 -25.82690 -64.53411 34106 ft 426 kts 329°
2026-04-25 14:44 -25.77269 -64.55998 34106 ft 426 kts 329°
2026-04-25 14:45 -25.71810 -64.58592 34088 ft 427 kts 329°
2026-04-25 14:45 -25.66348 -64.61189 34100 ft 427 kts 329°
2026-04-25 14:46 -25.60876 -64.63788 34101 ft 428 kts 329°
2026-04-25 14:46 -25.55399 -64.66383 34107 ft 428 kts 329°
2026-04-25 14:47 -25.50848 -64.68543 34115 ft 428 kts 329°
2026-04-25 14:47 -25.44442 -64.71580 34089 ft 429 kts 330°
2026-04-25 14:48 -25.38942 -64.74180 34102 ft 430 kts 330°
2026-04-25 14:48 -25.33435 -64.76777 34108 ft 431 kts 330°
2026-04-25 14:49 -25.27915 -64.79381 34111 ft 431 kts 330°
2026-04-25 14:49 -25.22431 -64.81963 34113 ft 431 kts 330°
2026-04-25 14:50 -25.19634 -64.83282 33596 ft 433 kts 330°
2026-04-25 14:50 -25.16877 -64.84584 32692 ft 438 kts 330°
2026-04-25 14:50 -25.14033 -64.85925 31829 ft 441 kts 331°
2026-04-25 14:50 -25.11231 -64.87244 30955 ft 445 kts 331°
2026-04-25 14:51 -25.08428 -64.88693 30012 ft 444 kts 325°
2026-04-25 14:51 -25.05726 -64.90391 28850 ft 448 kts 325°
2026-04-25 14:51 -25.03012 -64.92112 27935 ft 449 kts 325°
2026-04-25 14:51 -25.00326 -64.93816 27316 ft 443 kts 325°
2026-04-25 14:52 -24.97658 -64.95503 26581 ft 439 kts 325°
2026-04-25 14:52 -24.95012 -64.97174 25876 ft 436 kts 325°
2026-04-25 14:52 -24.92394 -64.98823 25169 ft 432 kts 325°
2026-04-25 14:52 -24.90669 -64.99909 24716 ft 430 kts 325°
2026-04-25 14:53 -24.87204 -65.02086 23794 ft 427 kts 325°
2026-04-25 14:53 -24.84629 -65.03704 23027 ft 425 kts 325°
2026-04-25 14:53 -24.82078 -65.05307 22359 ft 419 kts 326°
2026-04-25 14:53 -24.79559 -65.06890 21698 ft 415 kts 326°
2026-04-25 14:54 -24.77066 -65.08458 21054 ft 411 kts 326°
2026-04-25 14:54 -24.74595 -65.10012 20425 ft 407 kts 326°
2026-04-25 14:54 -24.72146 -65.11552 19838 ft 404 kts 326°
2026-04-25 14:54 -24.69717 -65.13079 19254 ft 401 kts 326°
2026-04-25 14:55 -24.67297 -65.14600 18675 ft 399 kts 327°
2026-04-25 14:55 -24.64921 -65.16091 18078 ft 398 kts 327°
2026-04-25 14:55 -24.62525 -65.17594 17495 ft 395 kts 327°
2026-04-25 14:55 -24.60152 -65.19079 16929 ft 391 kts 328°
2026-04-25 14:56 -24.57791 -65.20555 16347 ft 388 kts 328°
2026-04-25 14:56 -24.55454 -65.22017 15742 ft 386 kts 328°
2026-04-25 14:56 -24.53128 -65.23474 15147 ft 384 kts 328°
2026-04-25 14:56 -24.50810 -65.24927 14532 ft 383 kts 329°
2026-04-25 14:57 -24.48525 -65.26355 14300 ft 370 kts 329°
2026-04-25 14:57 -24.46329 -65.27728 14185 ft 355 kts 329°
2026-04-25 14:57 -24.44223 -65.29044 14067 ft 342 kts 329°
2026-04-25 14:57 -24.42194 -65.30308 13957 ft 330 kts 329°
2026-04-25 14:58 -24.40224 -65.31531 13826 ft 319 kts 329°
2026-04-25 14:58 -24.38328 -65.32709 13700 ft 306 kts 329°
2026-04-25 14:58 -24.36526 -65.33813 13562 ft 287 kts 333°
2026-04-25 14:58 -24.34692 -65.34529 13288 ft 276 kts 342°
2026-04-25 14:59 -24.32860 -65.35117 12824 ft 273 kts 342°
2026-04-25 14:59 -24.31047 -65.35693 12415 ft 272 kts 343°
2026-04-25 14:59 -24.29229 -65.36271 12128 ft 271 kts 343°
2026-04-25 14:59 -24.27430 -65.36843 11703 ft 268 kts 343°
2026-04-25 15:00 -24.25674 -65.37391 11309 ft 263 kts 346°
2026-04-25 15:00 -24.23869 -65.37611 10951 ft 261 kts
2026-04-25 15:00 -24.22092 -65.37259 10521 ft 261 kts 19°
2026-04-25 15:00 -24.20517 -65.36242 10110 ft 268 kts 43°
2026-04-25 15:01 -24.19438 -65.34617 9915 ft 265 kts 65°
2026-04-25 15:01 -24.18925 -65.32672 9506 ft 268 kts 78°
2026-04-25 15:01 -24.18731 -65.30630 9129 ft 271 kts 94°
2026-04-25 15:01 -24.19276 -65.28654 8608 ft 273 kts 119°
2026-04-25 15:02 -24.20279 -65.26934 8036 ft 263 kts 121°
2026-04-25 15:02 -24.21201 -65.25240 7491 ft 254 kts 119°
2026-04-25 15:02 -24.22070 -65.23578 7193 ft 250 kts 119°
2026-04-25 15:02 -24.23075 -65.22043 6918 ft 248 kts 130°
2026-04-25 15:03 -24.24215 -65.20599 6515 ft 253 kts 130°
2026-04-25 15:03 -24.25355 -65.19105 6153 ft 255 kts 129°
2026-04-25 15:03 -24.26543 -65.17771 5890 ft 242 kts 146°
2026-04-25 15:03 -24.27992 -65.16887 5576 ft 230 kts 150°
2026-04-25 15:04 -24.29354 -65.16050 5164 ft 225 kts 149°
2026-04-25 15:04 -24.30692 -65.15202 4819 ft 218 kts 149°
2026-04-25 15:04 -24.31960 -65.14395 4589 ft 204 kts 149°
2026-04-25 15:04 -24.33143 -65.13645 4343 ft 187 kts 149°
2026-04-25 15:05 -24.34218 -65.12963 4065 ft 168 kts 149°
2026-04-25 15:05 -24.35189 -65.12348 3780 ft 155 kts 149°
2026-04-25 15:05 -24.35812 -65.11957 3629 ft 151 kts 149°
2026-04-25 15:06 -24.37881 -65.10663 3100 ft 146 kts 148°
2026-04-25 15:06 -24.38467 -65.10283 3008 ft 141 kts 148°
2026-04-25 15:06 -24.39220 -65.09806 2999 ft 104 kts 150°
2026-04-25 15:06 -24.39695 -65.09511 2999 ft 55 kts 150°
2026-04-25 15:07 -24.39941 -65.09354 3000 ft 37 kts 150°
2026-04-25 15:07 -24.40164 -65.09214 2999 ft 36 kts 149°
2026-04-25 15:07 -24.40308 -65.09123 2997 ft 18 kts 149°
2026-04-25 15:07 -24.40352 -65.09056 2997 ft 8 kts 98°
2026-04-25 15:08 -24.40384 -65.09060 2997 ft 7 kts 261°
2026-04-25 15:08 -24.40339 -65.09105 2997 ft 12 kts 330°
2026-04-25 15:08 -24.40258 -65.09156 2998 ft 14 kts 330°
2026-04-25 15:08 -24.40168 -65.09212 2999 ft 15 kts 330°
2026-04-25 15:09 -24.40066 -65.09277 2999 ft 19 kts 330°
2026-04-25 15:09 -24.39950 -65.09349 3000 ft 20 kts 330°
2026-04-25 15:09 -24.39691 -65.09515 2999 ft 23 kts 329°
2026-04-25 15:10 -24.39547 -65.09604 2999 ft 25 kts 330°
2026-04-25 15:10 -24.39413 -65.09689 2998 ft 21 kts 330°
2026-04-25 15:10 -24.39188 -65.09823 2999 ft 15 kts 341°
2026-04-25 15:11 -24.39079 -65.09848 3000 ft 17 kts 351°
2026-04-25 15:11 -24.38972 -65.09853 2999 ft 12 kts
2026-04-25 15:11 -24.38909 -65.09788 2998 ft 14 kts 60°
2026-04-25 15:12 -24.38797 -65.09576 2997 ft 14 kts 60°
2026-04-25 15:12 -24.38759 -65.09504 2997 ft 7 kts 60°
2026-04-25 15:12 -24.38729 -65.09474 2997 ft 7 kts
2026-04-25 15:12 -24.38697 -65.09483 2997 ft 8 kts 336°
2026-04-25 15:13 -24.38646 -65.09502 2997 ft 4 kts 30°
2026-04-25 15:13 -24.38625 -65.09466 2997 ft 0 kts 60°